OneWeb SL0157

operational
NORAD ID: 48055 Int'l Des: 2021-025 Owner: ONEWEBN Country: UK Constellation: oneweb
LEOCIRCULARPOLARONEWEB_TYPE

关于 OneWeb SL0157

正在加载描述...

实时位置

正在加载3D地球...

即将过境

高度历史

Altitude vs Time

uPlot chart will show altitude changes over time

两行轨道根数

1 48055U 21025P 25258.60966119 .00000218 00000-0 56339-3 0 9992
2 48055 87.9037 14.7612 0002002 111.8787 248.2555 13.13470782217520
Epoch: Sep 15, 2025 • Age: 15 hours

当前状态

高度 1214.1 km
速度 7.25 km/s
星下点 39.60°N, 107.91°E
发射日期 Mar 25, 2021
运行时间 4.4 years
类型 internet

技术详情

分类 Payload
质量 148.00 kg
干质量 140.00 kg
总质量 148.00 kg
长度 1.30 m
直径 1.00 m
跨度 5.00 m
形状 Trapezoid+2 pan
制造商 ONEWUS
平台类型 ARROW
阶段状态 In Orbit
所有者/国家 ONEWEBN/UK

大型星座

Loading constellations...